AAL5724 KLGA-KDCA

Flight info

Callsign AAL5724
Flight time 0h 48m
Altitude 28000
Route BIGGY Q75 MXE CLIPR3
Aircraft A320/M-SDE3FGHIRWY/LB1

Departure

Time 2026-04-22 02:57
Airport LaGuardia Airport (KLGA)

Arrival

Time 2026-04-22 03:45
Airport Ronald Reagan Washington National Airport (KDCA)
Time Latitude Longitude Altitude Speed Heading
2026-04-22 02:52 40.78012 -73.87642 29 ft 13 kts 303°
2026-04-22 02:52 40.78060 -73.87737 29 ft 10 kts 303°
2026-04-22 02:52 40.78092 -73.87804 29 ft 4 kts 300°
2026-04-22 02:52 40.78111 -73.87842 29 ft 5 kts 316°
2026-04-22 02:53 40.78130 -73.87855 29 ft 0 kts 345°
2026-04-22 02:54 40.78131 -73.87855 29 ft 0 kts 345°
2026-04-22 02:54 40.78153 -73.87862 29 ft 5 kts 346°
2026-04-22 02:54 40.78202 -73.87858 29 ft 7 kts 26°
2026-04-22 02:55 40.78206 -73.87802 29 ft 5 kts 122°
2026-04-22 02:55 40.78203 -73.87796 29 ft 0 kts 122°
2026-04-22 02:56 40.78117 -73.87618 29 ft 61 kts 123°
2026-04-22 02:56 40.77748 -73.86855 29 ft 133 kts 118°
2026-04-22 02:57 40.77177 -73.85720 421 ft 152 kts 144°
2026-04-22 02:57 40.76237 -73.85251 1176 ft 147 kts 168°
2026-04-22 02:57 40.75258 -73.84907 1839 ft 151 kts 166°
2026-04-22 02:57 40.74215 -73.84390 2189 ft 171 kts 144°
2026-04-22 02:58 40.73664 -73.82995 2630 ft 190 kts 93°
2026-04-22 02:58 40.74152 -73.81355 3056 ft 206 kts 43°
2026-04-22 02:58 40.75426 -73.80336 3490 ft 223 kts 24°
2026-04-22 02:58 40.76840 -73.79366 3988 ft 241 kts 26°
2026-04-22 02:59 40.78375 -73.78238 4502 ft 259 kts 27°
2026-04-22 02:59 40.79960 -73.77040 5133 ft 270 kts 27°
2026-04-22 02:59 40.81564 -73.75794 5972 ft 272 kts 25°
2026-04-22 02:59 40.83303 -73.74927 6802 ft 264 kts 358°
2026-04-22 03:00 40.85013 -73.75429 7658 ft 252 kts 325°
2026-04-22 03:00 40.86253 -73.76987 8526 ft 249 kts 303°
2026-04-22 03:00 40.86908 -73.79053 9354 ft 252 kts 283°
2026-04-22 03:00 40.86869 -73.81383 10143 ft 263 kts 261°
2026-04-22 03:01 40.86141 -73.83637 10719 ft 279 kts 249°
2026-04-22 03:01 40.85235 -73.85995 11077 ft 296 kts 249°
2026-04-22 03:01 40.84272 -73.88509 11441 ft 312 kts 249°
2026-04-22 03:01 40.83294 -73.91058 12045 ft 318 kts 249°
2026-04-22 03:02 40.82281 -73.93690 12732 ft 322 kts 249°
2026-04-22 03:02 40.81274 -73.96310 13381 ft 325 kts 249°
2026-04-22 03:02 40.80250 -73.98975 14005 ft 329 kts 249°
2026-04-22 03:02 40.79211 -74.01683 14649 ft 332 kts 249°
2026-04-22 03:03 40.78173 -74.04382 15279 ft 334 kts 249°
2026-04-22 03:03 40.77123 -74.07112 15893 ft 336 kts 249°
2026-04-22 03:03 40.76073 -74.09839 16490 ft 338 kts 249°
2026-04-22 03:03 40.74999 -74.12628 17070 ft 341 kts 250°
2026-04-22 03:04 40.73930 -74.15405 17615 ft 344 kts 250°
2026-04-22 03:04 40.72848 -74.18210 18156 ft 346 kts 250°
2026-04-22 03:04 40.71761 -74.21029 18676 ft 349 kts 250°
2026-04-22 03:04 40.70656 -74.23894 19183 ft 351 kts 250°
2026-04-22 03:05 40.69551 -74.26759 19658 ft 354 kts 250°
2026-04-22 03:05 40.68426 -74.29668 20155 ft 356 kts 250°
2026-04-22 03:05 40.67313 -74.32545 20616 ft 359 kts 250°
2026-04-22 03:05 40.66175 -74.35479 21084 ft 361 kts 250°
2026-04-22 03:06 40.65037 -74.38413 21535 ft 363 kts 250°
2026-04-22 03:06 40.63881 -74.41393 21957 ft 366 kts 250°
2026-04-22 03:06 40.62719 -74.44382 22382 ft 369 kts 250°
2026-04-22 03:06 40.61562 -74.47356 22792 ft 371 kts 250°
2026-04-22 03:07 40.60377 -74.50395 23191 ft 374 kts 250°
2026-04-22 03:07 40.59192 -74.53436 23573 ft 377 kts 250°
2026-04-22 03:07 40.58001 -74.56491 23966 ft 379 kts 250°
2026-04-22 03:07 40.56791 -74.59589 24353 ft 382 kts 250°
2026-04-22 03:08 40.55574 -74.62699 24755 ft 383 kts 250°
2026-04-22 03:08 40.54362 -74.65794 25144 ft 385 kts 249°
2026-04-22 03:08 40.53137 -74.68920 25551 ft 387 kts 249°
2026-04-22 03:08 40.51897 -74.72078 25984 ft 388 kts 249°
2026-04-22 03:09 40.50666 -74.75211 26501 ft 386 kts 249°
2026-04-22 03:09 40.49437 -74.78335 26965 ft 385 kts 249°
2026-04-22 03:09 40.48209 -74.81457 27335 ft 387 kts 249°
2026-04-22 03:09 40.46986 -74.84563 27695 ft 389 kts 249°
2026-04-22 03:10 40.45741 -74.87721 28050 ft 390 kts 248°
2026-04-22 03:10 40.44483 -74.90906 28244 ft 392 kts 248°
2026-04-22 03:10 40.43200 -74.94044 28244 ft 394 kts 246°
2026-04-22 03:11 40.40023 -74.99929 28247 ft 399 kts 236°
2026-04-22 03:11 40.36293 -75.05260 28250 ft 398 kts 233°
2026-04-22 03:12 40.32507 -75.10561 28251 ft 398 kts 233°
2026-04-22 03:12 40.26849 -75.18477 28249 ft 398 kts 233°
2026-04-22 03:13 40.23075 -75.23751 28247 ft 398 kts 233°
2026-04-22 03:13 40.19306 -75.29011 28250 ft 399 kts 233°
2026-04-22 03:14 40.15512 -75.34294 28249 ft 399 kts 234°
2026-04-22 03:14 40.11704 -75.39586 28249 ft 398 kts 234°
2026-04-22 03:15 40.07920 -75.44833 28248 ft 398 kts 234°
2026-04-22 03:15 40.04140 -75.50069 28246 ft 399 kts 234°
2026-04-22 03:16 40.00347 -75.55315 28233 ft 398 kts 234°
2026-04-22 03:16 39.98465 -75.57915 27967 ft 395 kts 234°
2026-04-22 03:16 39.96584 -75.60505 27575 ft 390 kts 234°
2026-04-22 03:17 39.94733 -75.63052 27172 ft 387 kts 234°
2026-04-22 03:17 39.92916 -75.65653 26351 ft 389 kts 236°
2026-04-22 03:17 39.91230 -75.68357 25469 ft 388 kts 239°
2026-04-22 03:17 39.89672 -75.71168 24583 ft 377 kts 242°
2026-04-22 03:18 39.88222 -75.73943 23719 ft 367 kts 243°
2026-04-22 03:18 39.86812 -75.76651 22877 ft 359 kts 243°
2026-04-22 03:18 39.85438 -75.79295 22029 ft 355 kts 242°
2026-04-22 03:18 39.84070 -75.81933 21204 ft 356 kts 242°
2026-04-22 03:19 39.82693 -75.84579 20375 ft 356 kts 242°
2026-04-22 03:19 39.81304 -75.87243 19538 ft 354 kts 242°
2026-04-22 03:19 39.79944 -75.89843 18822 ft 347 kts 242°
2026-04-22 03:19 39.78611 -75.92384 18109 ft 340 kts 242°
2026-04-22 03:20 39.77288 -75.94907 17399 ft 337 kts 242°
2026-04-22 03:20 39.75985 -75.97389 16687 ft 334 kts 242°
2026-04-22 03:20 39.74693 -75.99847 15964 ft 327 kts 243°
2026-04-22 03:20 39.73426 -76.02256 15382 ft 316 kts 243°
2026-04-22 03:21 39.72210 -76.04565 14874 ft 305 kts 243°
2026-04-22 03:21 39.71030 -76.06808 14356 ft 299 kts 244°
2026-04-22 03:21 39.69880 -76.08993 14012 ft 288 kts 244°
2026-04-22 03:21 39.68774 -76.11098 13966 ft 285 kts 244°
2026-04-22 03:22 39.67650 -76.13242 13967 ft 285 kts 244°
2026-04-22 03:22 39.66544 -76.15350 13792 ft 285 kts 244°
2026-04-22 03:22 39.65429 -76.17467 13542 ft 283 kts 244°
2026-04-22 03:22 39.64310 -76.19587 13290 ft 283 kts 244°
2026-04-22 03:23 39.63199 -76.21691 13031 ft 282 kts 244°
2026-04-22 03:23 39.62096 -76.23779 12784 ft 280 kts 243°
2026-04-22 03:23 39.60992 -76.25864 12529 ft 279 kts 243°
2026-04-22 03:23 39.59877 -76.27911 12272 ft 280 kts 239°
2026-04-22 03:24 39.58579 -76.29803 12015 ft 284 kts 232°
2026-04-22 03:24 39.57058 -76.31512 11958 ft 290 kts 225°
2026-04-22 03:24 39.55412 -76.33012 11966 ft 292 kts 223°
2026-04-22 03:24 39.53715 -76.34489 11954 ft 292 kts 222°
2026-04-22 03:25 39.52030 -76.35948 11927 ft 293 kts 222°
2026-04-22 03:25 39.50345 -76.37409 11932 ft 293 kts 222°
2026-04-22 03:25 39.48642 -76.38886 11926 ft 294 kts 222°
2026-04-22 03:25 39.46959 -76.40346 11946 ft 293 kts 222°
2026-04-22 03:26 39.45244 -76.41834 11938 ft 293 kts 222°
2026-04-22 03:26 39.43554 -76.43299 11946 ft 293 kts 222°
2026-04-22 03:26 39.41884 -76.44746 11967 ft 293 kts 222°
2026-04-22 03:26 39.40186 -76.46219 11942 ft 293 kts 222°
2026-04-22 03:27 39.38502 -76.47678 11940 ft 293 kts 222°
2026-04-22 03:27 39.36787 -76.49163 11957 ft 294 kts 222°
2026-04-22 03:27 39.35096 -76.50626 11965 ft 294 kts 222°
2026-04-22 03:27 39.33396 -76.52095 11967 ft 294 kts 222°
2026-04-22 03:28 39.31690 -76.53570 11962 ft 294 kts 222°
2026-04-22 03:28 39.29997 -76.55032 11955 ft 294 kts 222°
2026-04-22 03:28 39.28299 -76.56500 11738 ft 295 kts 222°
2026-04-22 03:28 39.26607 -76.57958 11414 ft 292 kts 222°
2026-04-22 03:29 39.24921 -76.59412 11061 ft 289 kts 222°
2026-04-22 03:29 39.23264 -76.60838 10712 ft 287 kts 222°
2026-04-22 03:29 39.21611 -76.62261 10474 ft 285 kts 222°
2026-04-22 03:29 39.19959 -76.63683 10253 ft 284 kts 222°
2026-04-22 03:30 39.18315 -76.65101 10093 ft 283 kts 222°
2026-04-22 03:30 39.16762 -76.66602 9982 ft 279 kts 227°
2026-04-22 03:30 39.15301 -76.68266 9976 ft 277 kts 230°
2026-04-22 03:30 39.13896 -76.69933 9974 ft 278 kts 230°
2026-04-22 03:31 39.12462 -76.71637 9977 ft 278 kts 230°
2026-04-22 03:31 39.11054 -76.73311 9977 ft 278 kts 230°
2026-04-22 03:31 39.09633 -76.74996 9978 ft 278 kts 230°
2026-04-22 03:31 39.08203 -76.76690 9975 ft 277 kts 230°
2026-04-22 03:32 39.06784 -76.78370 9971 ft 277 kts 230°
2026-04-22 03:32 39.05369 -76.80045 9967 ft 277 kts 230°
2026-04-22 03:32 39.03941 -76.81733 9965 ft 278 kts 230°
2026-04-22 03:32 39.02521 -76.83410 9967 ft 278 kts 230°
2026-04-22 03:33 39.01090 -76.85098 9967 ft 278 kts 230°
2026-04-22 03:33 38.99675 -76.86766 9964 ft 278 kts 230°
2026-04-22 03:33 38.98268 -76.88464 9960 ft 275 kts 235°
2026-04-22 03:33 38.97364 -76.90527 9955 ft 258 kts 262°
2026-04-22 03:34 38.97264 -76.92771 9965 ft 251 kts 277°
2026-04-22 03:34 38.97362 -76.94997 9959 ft 252 kts 276°
2026-04-22 03:34 38.97445 -76.97251 9959 ft 252 kts 276°
2026-04-22 03:34 38.97522 -76.99481 9958 ft 252 kts 276°
2026-04-22 03:35 38.97713 -77.01703 9927 ft 248 kts 288°
2026-04-22 03:35 38.98490 -77.03661 9630 ft 245 kts 307°
2026-04-22 03:35 38.99683 -77.05207 9196 ft 247 kts 314°
2026-04-22 03:35 39.00943 -77.06731 8789 ft 247 kts 314°
2026-04-22 03:36 39.02195 -77.08249 8385 ft 247 kts 314°
2026-04-22 03:36 39.03432 -77.09747 7988 ft 247 kts 313°
2026-04-22 03:36 39.04671 -77.11272 7600 ft 246 kts 312°
2026-04-22 03:36 39.05888 -77.12788 7212 ft 246 kts 312°
2026-04-22 03:37 39.07111 -77.14313 6680 ft 242 kts 311°
2026-04-22 03:37 39.08237 -77.15878 5938 ft 240 kts 298°
2026-04-22 03:37 39.08725 -77.17870 5121 ft 237 kts 268°
2026-04-22 03:37 39.08306 -77.19868 4405 ft 234 kts 237°
2026-04-22 03:38 39.07221 -77.21332 4031 ft 221 kts 222°
2026-04-22 03:38 39.06070 -77.22521 3940 ft 202 kts 220°
2026-04-22 03:38 39.04981 -77.23527 3918 ft 185 kts 209°
2026-04-22 03:38 39.03731 -77.23751 3758 ft 183 kts 175°
2026-04-22 03:39 39.02602 -77.23130 3610 ft 181 kts 153°
2026-04-22 03:39 39.01658 -77.22025 3264 ft 185 kts 144°
2026-04-22 03:39 39.00761 -77.20847 3111 ft 181 kts 143°
2026-04-22 03:39 38.99875 -77.19684 3113 ft 182 kts 143°
2026-04-22 03:40 38.98985 -77.18530 3082 ft 182 kts 143°
2026-04-22 03:40 38.98088 -77.17378 2974 ft 181 kts 144°
2026-04-22 03:40 38.97195 -77.16237 2871 ft 179 kts 144°
2026-04-22 03:40 38.96316 -77.15140 2747 ft 172 kts 146°
2026-04-22 03:41 38.95467 -77.14172 2511 ft 158 kts 148°
2026-04-22 03:41 38.94666 -77.13280 2263 ft 143 kts 149°
2026-04-22 03:41 38.93956 -77.12477 2023 ft 130 kts 148°
2026-04-22 03:41 38.93283 -77.11721 1873 ft 128 kts 152°
2026-04-22 03:42 38.92543 -77.11102 1729 ft 126 kts 162°
2026-04-22 03:42 38.91732 -77.10620 1552 ft 129 kts 161°
2026-04-22 03:42 38.91027 -77.09892 1322 ft 133 kts 135°
2026-04-22 03:42 38.90582 -77.08857 1123 ft 132 kts 117°
2026-04-22 03:43 38.90287 -77.07750 986 ft 130 kts 123°
2026-04-22 03:43 38.89801 -77.06813 831 ft 126 kts 139°
2026-04-22 03:43 38.89151 -77.06027 690 ft 128 kts 142°
2026-04-22 03:43 38.88522 -77.05231 545 ft 128 kts 135°
2026-04-22 03:44 38.87890 -77.04433 360 ft 127 kts 147°
2026-04-22 03:44 38.87074 -77.03997 213 ft 127 kts 171°
2026-04-22 03:44 38.86195 -77.03876 71 ft 127 kts 174°
2026-04-22 03:44 38.85360 -77.03796 23 ft 109 kts 174°
2026-04-22 03:45 38.84772 -77.03735 22 ft 59 kts 176°
2026-04-22 03:45 38.84517 -77.03712 22 ft 25 kts 175°
2026-04-22 03:45 38.84408 -77.03732 22 ft 14 kts 220°
2026-04-22 03:45 38.84421 -77.03837 22 ft 15 kts 342°
2026-04-22 03:46 38.84527 -77.03855 22 ft 15 kts 354°
2026-04-22 03:46 38.84638 -77.03863 22 ft 16 kts 356°
2026-04-22 03:46 38.84731 -77.03898 22 ft 13 kts 307°
2026-04-22 03:46 38.84818 -77.03943 22 ft 14 kts 356°
2026-04-22 03:47 38.84922 -77.03953 22 ft 16 kts 356°
2026-04-22 03:47 38.85045 -77.03966 22 ft 18 kts 355°
2026-04-22 03:47 38.85140 -77.04018 22 ft 13 kts 316°
2026-04-22 03:47 38.85164 -77.04046 22 ft 0 kts 317°
2026-04-22 03:48 38.85167 -77.04050 22 ft 0 kts 316°